Estación de Illapel

Ultimos registro cada 15 minutos 91
Estación Fecha / Hora Temperatura Humedad Lluvia Velocidad Dirección Radiación Presion
91 Illapel 05-05-2026 22:45 11,7 39 0 0 291 0 1005,7
90 Illapel 05-05-2026 22:30 11,8 40 0 0 291 0 1005,7
89 Illapel 05-05-2026 22:15 11,8 40 0 0 287 0 1005,7
88 Illapel 05-05-2026 22:00 11,7 42 0 0 287 0 1005,7
87 Illapel 05-05-2026 21:45 11,6 45 0 0 282 0 1005,7
86 Illapel 05-05-2026 21:30 11,2 52 0 0 274 0 1005,7
85 Illapel 05-05-2026 21:15 11 56 0 0 264 0 1005,7
84 Illapel 05-05-2026 21:00 11,3 56 0 0 264 0 1005,7
83 Illapel 05-05-2026 20:45 11,5 59 0 0 264 0 1005,7
82 Illapel 05-05-2026 20:30 11,6 59 0 0 264 0 1005,7
81 Illapel 05-05-2026 20:15 11,9 59 0 0 264 0 1005,7
80 Illapel 05-05-2026 20:00 12 60 0 0 264 0 1005,7
79 Illapel 05-05-2026 19:45 12,1 61 0 0 264 0 1005,7
78 Illapel 05-05-2026 19:30 12,4 61 0 0 264 0 1005,7
77 Illapel 05-05-2026 19:15 12,8 61 0 0 264 0 1005,7
76 Illapel 05-05-2026 19:00 13,1 61 0 0 264 0 1005,7
75 Illapel 05-05-2026 18:45 13,2 61 0 1,3 244 0 1005,7
74 Illapel 05-05-2026 18:30 13,3 62 0 0,9 239 0 1005,7
73 Illapel 05-05-2026 18:15 13,5 63 0 0,4 248 0 1005,7
72 Illapel 05-05-2026 18:00 13,8 63 0 1,8 232 0 1005,7
71 Illapel 05-05-2026 17:45 14,3 63 0 0,9 245 9 1005,7
70 Illapel 05-05-2026 17:30 14,6 62 0 1,8 262 14 1005,7
69 Illapel 05-05-2026 17:15 15,2 61 0 0,4 287 18 1005,7
68 Illapel 05-05-2026 17:00 15,8 59 0 2,2 251 23 1005,7
67 Illapel 05-05-2026 16:45 16,1 58 0 0,9 285 178 1005,7
66 Illapel 05-05-2026 16:30 16,3 57 0 2,2 308 220 1005,7
65 Illapel 05-05-2026 16:15 17,1 55 0 3,1 333 262 1005,7
64 Illapel 05-05-2026 16:00 18,1 52 0 2,7 286 306 1005,7
63 Illapel 05-05-2026 15:45 19,1 49 0 1,8 321 345 1005,7
62 Illapel 05-05-2026 15:30 19 50 0 0,9 275 385 1005,7
61 Illapel 05-05-2026 15:15 19,1 49 0 3,1 231 420 1005,7
60 Illapel 05-05-2026 15:00 19,8 47 0 3,1 248 454 1005,7
59 Illapel 05-05-2026 14:45 20,2 46 0 4 314 489 1005,7
58 Illapel 05-05-2026 14:30 20,3 45 0 1,8 314 513 1005,7
57 Illapel 05-05-2026 14:15 20,5 44 0 0,9 318 541 1005,7
56 Illapel 05-05-2026 14:00 20,9 45 0 2,2 316 559 1005,7
55 Illapel 05-05-2026 13:45 21,8 42 0 0,9 256 580 1005,7
54 Illapel 05-05-2026 13:30 22,1 41 0 0,9 273 281 1005,7
53 Illapel 05-05-2026 13:15 22,1 41 0 2,7 277 32 1005,7
52 Illapel 05-05-2026 13:00 22,3 40 0 0,4 252 30 1005,7
51 Illapel 05-05-2026 12:45 22,2 40 0 1,8 230 30 1005,7
50 Illapel 05-05-2026 12:30 22,2 39 0 2,7 304 39 1005,7
49 Illapel 05-05-2026 12:15 21,9 39 0 1,8 11 30 1005,7
48 Illapel 05-05-2026 12:00 21,3 40 0 0,9 10 30 1005,7
47 Illapel 05-05-2026 11:45 20,3 39 0 1,3 354 30 1005,7
46 Illapel 05-05-2026 11:30 20 40 0 0,9 352 30 1005,7
45 Illapel 05-05-2026 11:15 19,8 41 0 2,2 360 446 1005,7
44 Illapel 05-05-2026 11:00 19,1 41 0 0,4 350 527 1005,7
43 Illapel 05-05-2026 10:45 17,7 44 0 0 17 501 1005,7
42 Illapel 05-05-2026 10:30 16,5 44 0 0,9 23 269 1007,2
41 Illapel 05-05-2026 10:15 16,1 45 0 0,4 77 408 1009
40 Illapel 05-05-2026 10:00 15,6 44 0 0,4 83 408 1008,3
39 Illapel 05-05-2026 09:45 14,4 46 0 0,4 109 227 1008,3
38 Illapel 05-05-2026 09:30 13,1 50 0 0,4 119 195 1008,3
37 Illapel 05-05-2026 09:15 11,8 52 0 0 124 172 1008,3
36 Illapel 05-05-2026 09:00 11,2 53 0 0 124 79 1008,3
35 Illapel 05-05-2026 08:45 9,9 57 0 0 135 174 1008,3
34 Illapel 05-05-2026 08:30 8,7 59 0 0 145 51 1008,3
33 Illapel 05-05-2026 08:15 8,4 60 0 0 144 25 1008,3
32 Illapel 05-05-2026 08:00 8,1 61 0 0 144 21 1008,3
31 Illapel 05-05-2026 07:45 7,8 61 0 0,9 146 9 1008,3
30 Illapel 05-05-2026 07:30 7,6 62 0 0 200 0 1008,3
29 Illapel 05-05-2026 07:15 7,4 63 0 0 203 0 1008,3
28 Illapel 05-05-2026 07:00 7,2 63 0 0,4 204 0 1008,3
27 Illapel 05-05-2026 06:45 7,4 62 0 0 204 0 1008,3
26 Illapel 05-05-2026 06:30 7,6 63 0 0 204 0 1008,3
25 Illapel 05-05-2026 06:15 7,7 62 0 0 204 0 1008,3
24 Illapel 05-05-2026 06:00 7,8 63 0 0 204 0 1008,3
23 Illapel 05-05-2026 05:45 7,9 63 0 0 204 0 1008,3
22 Illapel 05-05-2026 05:30 7,7 63 0 0 204 0 1008,3
21 Illapel 05-05-2026 05:15 7,8 61 0 0 204 0 1008,3
20 Illapel 05-05-2026 05:00 8,3 62 0 0 204 0 1008,3
19 Illapel 05-05-2026 04:45 8,2 62 0 0 204 0 1008,3
18 Illapel 05-05-2026 04:30 8,5 61 0 0 204 0 1008,3
17 Illapel 05-05-2026 04:15 8,8 60 0 0 204 0 1008,3
16 Illapel 05-05-2026 04:00 9 60 0 0 204 0 1008,3
15 Illapel 05-05-2026 03:45 9,2 59 0 0 204 0 1008,3
14 Illapel 05-05-2026 03:30 9,4 59 0 0 204 0 1008,3
13 Illapel 05-05-2026 03:15 9,8 57 0 0 204 0 1008,3
12 Illapel 05-05-2026 03:00 10,3 56 0 0 204 0 1008,3
11 Illapel 05-05-2026 02:45 10,9 54 0 0 204 0 1008,3
10 Illapel 05-05-2026 02:30 11,6 53 0 0 183 0 1008,3
9 Illapel 05-05-2026 02:15 11,2 55 0 0 201 0 1008,3
8 Illapel 05-05-2026 02:00 11,8 53 0 0 207 0 1008,3
7 Illapel 05-05-2026 01:45 12 53 0 0 146 0 1008,3
6 Illapel 05-05-2026 01:30 11,9 54 0 0,9 126 0 1008,3
5 Illapel 05-05-2026 01:15 11,9 54 0 2,2 156 0 1008,3
4 Illapel 05-05-2026 00:45 11,1 58 0 0 208 0 1008,3
3 Illapel 05-05-2026 00:30 11,1 58 0 0 208 0 1008,3
2 Illapel 05-05-2026 00:15 11,3 58 0 0 212 0 1008,3
1 Illapel 05-05-2026 00:00 11 58 0 0 222 0 1008,3